Regional Weather Roundup
Issued by NWS

Home | Current Version | Previous Version | Text Only | Print | Product List | Glossary On
Versions: 1 2 3 4 5 6 7 8 9 10 11 12 13 14 15 16 17 18 19 20 21 22 23 24 25 26 27 28 29 30 31 32 33 34 35 36 37 38 39 40 41 42 43 44 45 46 47 48 49 50
000
ASUS44 KLIX 071111
RWRLA
LOUISIANA WEATHER ROUNDUP
NATIONAL WEATHER SERVICE NEW ORLEANS LA
600 AM CDT TUE APR 07 2020

NOTE: "FAIR" INDICATES FEW OR NO CLOUDS BELOW 12,000 FEET WITH NO
      SIGNIFICANT WEATHER AND/OR OBSTRUCTIONS TO VISIBILITY.
      SKY/WX - SKY CONDITION AND SIGNIFICANT WEATHER.
      TMP - AIR TEMPERATURE.    DP   - DEWPOINT TEMPERATURE.
      RH  - RELATIVE HUMIDITY.  PRES - PRESSURE.
      HX  - HEAT INDEX.         WCI  - WIND CHILL INDEX.

*  THESE STATIONS ARE NOT NWS OR FAA STATIONS AND ARE NOT UNDER
   NWS QUALITY CONTROL.

LAZ040-048-061>063-065-066-069-071200-
SOUTHEAST LOUISIANA

CITY           SKY/WX    TMP DP  RH WIND       PRES   REMARKS
N.O. INTL ARPT MOCLDY    72  68  87 SE6       30.03R
N.O. LAKEFRONT   N/A    N/A N/A N/A MISG        N/A
N.O. DOWNTOWN* CLOUDY    72  68  87 S6        30.05R
RESERVE*       CLOUDY    72  66  82 S5        30.04R
SLIDELL        CLOUDY    66  62  87 CALM      30.03S
BATON ROUGE    CLOUDY    70  66  87 CALM      30.03R
BOOTHVILLE*    CLOUDY    65  64  97 CALM      30.05S VSB 1
BELLE CHASSE*  CLOUDY    72  70  93 S3        30.03R
BOGALUSA*      CLOUDY    66  63  90 CALM      30.05S
GALLIANO*      FAIR      70  68  93 CALM      30.03R
NEW ROADS*     CLOUDY    70  66  88 CALM      30.03S
GONZALES*      CLOUDY    72  69  90 CALM      30.03R
HAMMOND*       CLOUDY    66  64  94 CALM      30.04R
HOUMA*         MOCLDY    72  70  94 S5        30.03R
PORT FOURCHON* PTSUNNY   73  72  94 SE6       30.04R

$$

LAZ041-044-053-054-071200-
SOUTHWEST LOUISIANA

CITY           SKY/WX    TMP DP  RH WIND       PRES   REMARKS
LAKE CHARLES   FOG       71  71 100 SE5       29.99F VSB 1/2
LAFAYETTE      CLOUDY    71  67  87 CALM      30.02R
PATTERSON      MOCLDY    71  69  93 SE6       30.02R
SALT POINT       N/A     70  69  97 SE5       30.01R
NEW IBERIA     CLOUDY    72  71  97 SE3       30.02R
CHENAULT AIRPK FOG       72  72 100 S6        29.99F VSB 1

$$

LAZ027-028-071200-
CENTRAL LOUISIANA

CITY           SKY/WX    TMP DP  RH WIND       PRES   REMARKS
FORT POLK      CLOUDY    70  70  99 S7        29.98S FOG
ALEXANDRIA INT CLOUDY    70  67  90 SE8       29.98F
ALEXANDRIA     CLOUDY    71  66  84 S5        30.00S

$$

LAZ001-002-071200-
NORTHWEST LOUISIANA

CITY           SKY/WX    TMP DP  RH WIND       PRES   REMARKS
SHREVEPORT     CLOUDY    71  69  93 S6        29.96R
BARKSDALE AFB  CLOUDY    69  69 100 S7        29.96R
DTN SHREVEPORT CLOUDY    72  69  90 S6        29.96R

$$

LAZ014-016-071200-
NORTHEAST LOUISIANA

CITY           SKY/WX    TMP DP  RH WIND       PRES   REMARKS
MONROE         CLOUDY    70  64  81 S5        29.99F
TALLULAH       FAIR      68  64  87 S3        30.02R

$$




USA.gov is the U.S. government's official web portal to all federal, state and local government web resources and services.